Printer-friendly version
Follow the MPC on Twitter Follow the MPC on Facebook The MPC blog
Minor Planet Center

MPEC 2010-P16 : 2010 OM101

The following Minor Planet Electronic Circular may be linked-to from your own Web pages, but must not otherwise be redistributed electronically.

A form allowing access to any MPEC is at the bottom of this page.


Read MPEC 2010-P15 Read MPEC 2010-P17


M.P.E.C. 2010-P16                                Issued 2010 Aug. 4, 13:39 UT

     The Minor Planet Electronic Circulars contain information on unusual
         minor planets and routine data on comets.  They are published
   on behalf of Commission 20 of the International Astronomical Union by the
          Minor Planet Center, Smithsonian Astrophysical Observatory,
                          Cambridge, MA 02138, U.S.A.

             Prepared using the Tamkin Foundation Computer Network

                              MPC@CFA.HARVARD.EDU
       URL http://www.minorplanetcenter.org/iau/mpc.html  ISSN 1523-6714

                                  2010 OM101

Observations:
     K10OA1M* S2010 07 28.18713 23 36 25.45 +64 10 06.6          20   R EP016C51
     K10OA1M  s2010 07 28.18713 1 + 1389.7082 + 1905.9896 + 6480.9981   EP016C51
     K10OA1M  S2010 07 28.25322 23 36 07.85 +64 10 04.3                 EP016C51
     K10OA1M  s2010 07 28.25322 1 + 1353.4831 + 1887.7527 + 6493.9926   EP016C51
     K10OA1M  S2010 07 28.31944 23 35 50.13 +64 10 02.4                 EP016C51
     K10OA1M  s2010 07 28.31944 1 + 1386.0830 + 1909.7142 + 6480.7076   EP016C51
     K10OA1M  S2010 07 28.38553 23 35 32.45 +64 09 59.4                 EP016C51
     K10OA1M  s2010 07 28.38553 1 + 1350.2186 + 1891.2150 + 6493.6000   EP016C51
     K10OA1M  S2010 07 28.51783 23 34 56.91 +64 09 53.4                 EP016C51
     K10OA1M  s2010 07 28.51783 1 + 1345.5048 + 1893.6901 + 6494.0751   EP016C51
     K10OA1M  S2010 07 28.58405 23 34 39.08 +64 09 49.8                 EP016C51
     K10OA1M  s2010 07 28.58405 1 + 1377.2895 + 1915.5047 + 6480.9947   EP016C51
     K10OA1M  S2010 07 28.65013 23 34 21.31 +64 09 46.2                 EP016C51
     K10OA1M  s2010 07 28.65013 1 + 1341.0444 + 1896.9460 + 6493.8614   EP016C51
     K10OA1M  S2010 07 28.71622 23 34 03.41 +64 09 42.3                 EP016C51
     K10OA1M  s2010 07 28.71622 1 + 1305.0581 + 1878.4413 + 6506.4042   EP016C51
     K10OA1M  S2010 07 28.78244 23 33 45.46 +64 09 38.5                 EP016C51
     K10OA1M  s2010 07 28.78244 1 + 1337.7464 + 1900.8006 + 6493.2126   EP016C51
     K10OA1M  S2010 07 28.91474 23 33 09.65 +64 09 29.4                 EP016C51
     K10OA1M  s2010 07 28.91474 1 + 1334.3740 + 1904.1903 + 6493.0897   EP016C51
     K10OA1M  S2010 07 29.04705 23 32 33.65 +64 09 20.3                 EP016C51
     K10OA1M  s2010 07 29.04705 1 + 1330.6181 + 1907.3083 + 6492.9642   EP016C51
     K10OA1M IC2010 08 02.22113323 12 32.70 +63 55 36.6                 EP016H21
     K10OA1M IC2010 08 02.23582423 12 28.26 +63 55 32.4          20.3 V EP016H21
     K10OA1M IC2010 08 02.90613 23 09 04.28 +63 51 32.4                 EP016J95
     K10OA1M IC2010 08 02.91031 23 09 03.08 +63 51 31.6                 EP016J95
     K10OA1M IC2010 08 02.91511 23 09 01.60 +63 51 30.5          20.3 R EP016J95
     K10OA1M IC2010 08 03.26671823 07 13.71 +63 49 13.4                 EP016H21
     K10OA1M IC2010 08 03.26999523 07 12.58 +63 49 12.8                 EP016H21
     K10OA1M  C2010 08 03.27763023 07 10.30 +63 49 09.2          20.6 V EP016H21
     K10OA1M HC2010 08 04.28082 23 01 58.07 +63 41 47.2          21.4 V EP016691
     K10OA1M HC2010 08 04.28371 23 01 57.23 +63 41 46.2          20.9 V EP016691
     K10OA1M HC2010 08 04.28667 23 01 56.24 +63 41 46.1          20.9 V EP016691

Observer details:
691 Steward Observatory, Kitt Peak.  Observer R. S. McMillan.  0.9-m f/3
    reflector + CCD.
C51 WISE.  Measurers A. K. Mainzer, E. L. Wright, J. M. Bauer, T. Grav,
    J. W. Dailey, J. R. Masiero, R. M. Cutri, R. S. McMillan,
    R. G. Walker. (http://wise.ssl.berkeley.edu/mission_sci.html).
H21 Astronomical Research Observatory, Westfield.  Observer R. Holmes.
    Measurer S. Foglia.
J95 Great Shefford.  Observer P. Birtwhistle.  0.40-m f/6.0 Schmidt-Cassegrain
    + CCD.

Orbital elements:
2010 OM101
Epoch 2010 July 23.0 TT = JDT 2455400.5                 MPC
M 359.92919              (2000.0)            P               Q
n   0.00100075     Peri.  147.92154     +0.76311192     +0.05889013
a  98.9887383      Node   132.67793     -0.59679556     -0.31790450
e   0.9784393      Incl.  118.90688     +0.24798238     -0.94629207
P 985              H   16.3           G   0.15
From 22 observations 2010 July 28-Aug. 4.  E-assumed.

Ephemeris:
2010 OM101               a,e,i = 98.99, 0.98, 119                q = 2.1343
Date    TT    R. A. (2000) Decl.     Delta      r     Elong.  Phase     V
2010 08 02    23 13.65   +63 56.8    1.945    2.248    93.4    26.8    20.7
2010 08 12    22 19.72   +61 57.6    1.766    2.214   102.2    26.6    20.5
2010 08 22    21 25.60   +57 11.2    1.617    2.186   110.4    25.7    20.2
2010 09 01    20 41.15   +49 22.9    1.515    2.164   116.6    24.6    20.0
2010 09 11    20 09.73   +39 14.8    1.476    2.148   118.6    24.3    19.9
2010 09 21    19 49.73   +28 12.4    1.507    2.138   115.2    25.1    20.0
2010 10 01    19 38.22   +17 43.7    1.605    2.134   107.7    26.6    20.2
2010 10 11    19 32.72   +08 40.9    1.755    2.137    98.0    27.6    20.4
2010 10 21    19 31.49   +01 17.1    1.940    2.146    87.8    27.6    20.6
2010 10 31    19 33.30   -04 37.9    2.144    2.161    77.6    26.7    20.8
2010 11 10    19 37.35   -09 21.2    2.355    2.182    67.8    24.8    21.0

Sonia Keys                   (C) Copyright 2010 MPC           M.P.E.C. 2010-P16

Read MPEC 2010-P15 Read MPEC 2010-P17


MPEC number:

Enter an MPEC number in one of the following forms:

  • 1997-B01 (the full form)
  • J97B01 (the packed version of the full form)
  • B01 (the abbreviated form)

Valid HTML 4.01!